Simultaneous Nadir Overpasses (SNOs) Predictions

Prediction of SNOs between METOP-C and LANDSAT-8 Satellite Orbit:

Table of predicted SNOs for the next 14.0 days since TLE Epoch: 7/23/2022
Index Date (METOP-C) Time (METOP-C) Lat,Lon (METOP-C) SZA (METOP-C ) Date (LANDSAT-8) Time (LANDSAT-8) Lat,Lon (LANDSAT-8) SZA (LANDSAT-8 ) Distance(km) Time Diff (sec)
1 07/23/2022 08:33:10 81.18, 92.73 63.22 07/23/2022 08:33:29 81.19, 92.74 63.24 0.44 19
2 07/23/2022 09:23:50 -81.20, -99.44 116.71 07/23/2022 09:22:55 -81.21, -99.32 116.72 2.15 55
3 07/26/2022 04:07:32 81.18, 158.97 63.80 07/26/2022 04:07:47 81.18, 158.99 63.80 0.46 15
4 07/26/2022 04:58:12 -81.19, -33.23 116.14 07/26/2022 04:57:13 -81.20, -33.05 116.15 3.05 59
5 07/28/2022 23:41:53 81.18,-134.45 64.46 07/28/2022 23:42:04 81.19,-134.40 64.47 0.97 11
6 07/29/2022 00:32:32 -81.21, 33.70 115.44 07/29/2022 00:31:30 -81.21, 33.59 115.48 1.88 62
7 07/31/2022 19:16:15 81.18, -68.29 65.11 07/31/2022 19:16:22 81.18, -68.15 65.13 2.44 7
8 07/31/2022 20:06:53 -81.20, 99.83 114.79 07/31/2022 20:05:47 -81.20, 99.87 114.82 0.66 66
9 08/03/2022 14:50:34 81.19, -1.41 65.89 08/03/2022 14:50:38 81.19, -1.52 65.88 2.02 4



Historial Predications of SNOs between METOP-C and LANDSAT-8
